Flag for Germany Weather for the Past 2 Weeks in Menden (Sauerland), North Rhine-Westphalia, Germany

Now
46 °F

Clear.


Feels Like: 40 °F
Forecast: 43 / 49 °F
Wind: 16 mph from Southwest

Location: Dortmund / Wickede

Current Time: Feb 7, 2016 at 6:42:33 PM

Latest Report: Feb 7, 2016 at 5:50 PM


Visibility: 10 mi

Pressure: 29.59 "Hg

Humidity: 57%

Dew point: 32 °F

Location of Menden (Sauerland)Location

Historic Weather in Menden (Sauerland) — Graph

°F

Menden (Sauerland) Temperature Yesterday

Maximum temperature yesterday: 52 °F (at 2:20 PM)
Minimum temperature yesterday: 45 °F (at 7:50 AM)
Average temperature yesterday: 49 °F

High & Low Weather Summary for the Past Weeks

 TemperatureHumidityPressure
High54 °F (Jan 25, 3:20 PM)94% (Feb 1, 7:20 AM)30.54 "Hg (Feb 1, 7:20 AM)
Low36 °F (Jan 28, 7:50 PM)53% (Jan 28, 2:20 PM)29.45 "Hg (Feb 7, 6:20 AM)
Average45 °F76%30.04 "Hg
* Reported Jan 23 5:20 PM — Feb 7 5:20 PM, Menden (Sauerland), Weather by CustomWeather, © 2016

Note: Actual official high and low records may vary slightly from our data, if they occured in-between our weather recording intervals... More about our weather records

Advertising

Menden (Sauerland) Weather History for the Previous 24 Hours

 ConditionsComfort  
Time TempWeatherWind HumidityBarometerVisibility
5:20 PM
Sun, Feb 7
45 °FSunny.18 mph61%29.59 "Hg10 mi
4:50 PM46 °FSunny.20 mph57%29.59 "Hg10 mi
4:20 PM46 °FScattered clouds.15 mph62%29.56 "HgN/A
3:50 PM46 °FSunny.18 mph62%29.56 "Hg10 mi
3:20 PM46 °FPartly sunny.14 mph62%29.56 "HgN/A
2:50 PM46 °FPartly sunny.18 mph62%29.56 "HgN/A
2:20 PM46 °FPartly sunny.17 mph66%29.56 "HgN/A
1:50 PM48 °FPartly sunny.18 mph66%29.53 "HgN/A
1:20 PM48 °FPartly sunny.18 mph66%29.53 "HgN/A
12:50 PM48 °FSunny.15 mph66%29.53 "Hg10 mi
12:20 PM46 °FScattered clouds.16 mph71%29.53 "HgN/A
11:50 AM46 °FPartly sunny.17 mph71%29.53 "HgN/A
11:20 AM48 °FPartly sunny.15 mph71%29.50 "HgN/A
10:50 AM46 °FPartly sunny.16 mph76%29.50 "HgN/A
10:20 AM50 °FSprinkles. Partly sunny.22 mph67%29.47 "HgN/A
9:50 AM52 °FPartly sunny.21 mph62%29.45 "HgN/A
9:20 AM52 °FScattered clouds.20 mph58%29.45 "HgN/A
8:50 AM52 °FPassing clouds.22 mph58%29.45 "HgN/A
8:20 AM50 °FLight rain. Passing clouds.17 mph62%29.45 "HgN/A
7:50 AM50 °FLight rain. Clear.15 mph62%29.45 "HgN/A
7:20 AM50 °FSprinkles. Clear.16 mph58%29.45 "HgN/A
6:50 AM50 °FClear.16 mph58%29.45 "Hg10 mi
6:20 AM50 °FClear.14 mph58%29.45 "Hg10 mi
5:50 AM50 °FPassing clouds.15 mph58%29.47 "HgN/A
5:20 AM50 °FClear.16 mph58%29.47 "Hg10 mi
10:50 PM
Sat, Feb 6
50 °FClear.15 mph62%29.59 "Hg10 mi
9:50 PM50 °FClear.15 mph62%29.62 "Hg10 mi
9:20 PM50 °FClear.12 mph58%29.65 "Hg10 mi
8:50 PM50 °FClear.16 mph58%29.65 "Hg10 mi
8:20 PM50 °FClear.17 mph58%29.65 "Hg10 mi
7:50 PM48 °FClear.14 mph62%29.68 "Hg10 mi
7:20 PM50 °FClear.13 mph58%29.68 "Hg10 mi
6:50 PM50 °FClear.12 mph58%29.68 "Hg10 mi
6:20 PM48 °FClear.14 mph66%29.71 "Hg10 mi
Weather by CustomWeather, © 2016

See weather overviewHow to use our weather pages